Location: ????????
(37.9452°N, 23.1472°E)
Time: 05:26:51
(UTC+00:00)

Cosmos 1503 Rocket - Visible Passes

Search period start: 18 July 2024 00:00
Search period end: 28 July 2024 00:00
Orbit: 751 x 787 km, 74.0° (Epoch: 17 July)

Date Brightness Start Highest point End Pass type
(mag) Time Alt. Az. Time Alt. Az. Time Alt. Az.
18 Jul 6.6 00:50:18 10° NNE 00:53:54 19° ENE 00:57:30 10° ESE visible
18 Jul 4.2 02:31:17 10° NNW 02:36:15 49° WSW 02:41:14 10° S visible
19 Jul 7.0 00:15:24 10° NE 00:16:52 11° NE 00:18:20 10° ENE visible
19 Jul 3.9 01:54:29 10° NNW 01:59:40 88° WSW 02:04:51 10° SSE visible
20 Jul 4.7 01:17:55 10° N 01:22:59 53° ENE 01:28:02 10° SE visible
21 Jul 5.7 00:41:37 10° N 00:46:11 31° ENE 00:50:46 10° SE visible
21 Jul 4.9 02:23:48 10° NW 02:28:08 28° W 02:32:29 10° SSW visible
22 Jul 6.4 00:05:40 10° NNE 00:09:18 19° ENE 00:12:54 10° ESE visible
22 Jul 4.2 01:46:40 10° NNW 01:51:38 49° WSW 01:56:08 13° S visible
22 Jul 6.8 23:30:44 10° NE 23:32:15 11° NE 23:33:46 10° ENE visible
23 Jul 3.9 01:09:51 10° NNW 01:15:03 87° WSW 01:18:23 23° SSE visible
24 Jul 4.6 00:33:17 10° N 00:38:21 53° ENE 00:40:59 27° SE visible
24 Jul 5.5 02:16:53 10° WNW 02:19:55 16° W 02:21:11 15° WSW visible
24 Jul 5.5 23:56:59 10° N 00:01:34 31° ENE 00:03:50 22° ESE visible
25 Jul 4.9 01:39:09 10° NW 01:43:30 28° W 01:44:02 27° WSW visible
25 Jul 6.2 23:21:01 10° NNE 23:24:39 19° ENE 23:26:50 15° E visible
26 Jul 4.1 01:02:02 10° NNW 01:07:01 49° WSW 01:07:03 49° WSW visible
26 Jul 6.7 22:46:04 10° NE 22:47:37 11° NE 22:49:11 10° ENE visible
27 Jul 3.9 00:25:13 10° NNW 00:30:12 83° NW 00:30:12 83° NW visible
27 Jul 4.6 23:48:39 10° N 23:53:28 53° ENE 23:53:28 53° ENE visible
